User: anonymous   Login
Location: Unspecified
(0.0000°N, 0.0000°E)
Time: 03:42:49
(UTC+00:00)
Language:

X-37B - Orbit

View from above orbital plane
View from above orbital plane
View from above satellite
View from above satellite

Ground track
Ground track

The orbit data is extracted from the following two-line orbital elements,

1 45606U 20029A   21161.33512227 0.00000000  00000-0  00000-0 0    03
2 45606  45.0170 254.0484 0002414  49.3003 310.6993 15.60025799    02
Epoch (UTC): 10 June 2021 08:02:34
Eccentricity: 0.0002414
inclination: 45.0170°
perigee height: 386 km
apogee height: 389 km
right ascension of ascending node: 254.0484°
argument of perigee: 49.3003°
revolutions per day: 15.60025799
mean anomaly at epoch: 310.6993°
orbit number at epoch: 0

The dashed part of the orbit path shows where the satellite is in the earth's shadow,  

DLR